Location: Lombard
(41.8800°N, 88.0078°W)
Time: 13:29:29
(UTC-06:00)

BlueWalker 3 - Pass Details

Date: 22 January 2026
Orbit: 450 x 461 km, 53.2° (Epoch: 11 February)

Event Time Altitude Azimuth Distance (km) Brightness Sun altitude
Rises 18:35:07 0° 245° (WSW) 2,447 6.9 -18.6°
Reaches altitude 10° 18:37:18 10° 252° (WSW) 1,577 5.7 -19.0°
Maximum altitude 18:40:44 48° 327° (NNW) 601 2.4 -19.6°
Enters shadow 18:41:29 40° 6° (N) 678 2.4 -19.7°
